Time,TemperatureF,DewpointF,PressureIn,WindDirection,WindDirectionDegrees,WindSpeedMPH,WindSpeedGustMPH,Humidity,HourlyPrecipIn,Conditions,Clouds,dailyrainin,SoftwareType,DateUTC
2013-05-26 00:01:00,47.7,41.2,30.00,North,5,3.0,3.0,78,0.00,,,0.01,Wunderground v.1.13,2013-05-26 04:01:00,
2013-05-26 00:30:00,47.4,41.5,29.99,North,355,2.0,2.0,80,0.00,,,0.01,Wunderground v.1.13,2013-05-26 04:30:00,
2013-05-26 01:00:00,47.4,41.9,29.98,NNW,345,4.0,4.0,81,0.00,,,0.00,Wunderground v.1.13,2013-05-26 05:00:00,
2013-05-26 01:30:00,47.1,41.2,29.98,North,350,6.0,6.0,80,0.00,,,0.01,Wunderground v.1.13,2013-05-26 05:30:00,
2013-05-26 02:00:00,47.1,40.9,29.96,NNW,338,5.0,5.0,79,0.00,,,0.01,Wunderground v.1.13,2013-05-26 06:00:00,
2013-05-26 02:31:00,47.6,40.4,29.95,NW,310,7.0,17.0,76,0.00,,,0.01,Wunderground v.1.13,2013-05-26 06:31:00,
2013-05-26 03:00:00,47.1,40.3,29.95,North,350,7.0,17.0,77,0.00,,,0.01,Wunderground v.1.13,2013-05-26 07:00:00,
2013-05-26 03:30:00,46.2,40.7,29.94,NNW,340,5.0,5.0,81,0.00,,,0.02,Wunderground v.1.13,2013-05-26 07:30:00,
2013-05-26 04:00:00,46.1,41.2,29.94,North,355,5.0,5.0,83,0.00,,,0.02,Wunderground v.1.13,2013-05-26 08:00:00,
2013-05-26 04:30:00,45.8,41.2,29.94,NNW,335,6.0,6.0,84,0.00,,,0.04,Wunderground v.1.13,2013-05-26 08:30:00,
2013-05-26 05:00:00,45.7,41.4,29.94,NNW,347,7.0,7.0,85,0.00,,,0.04,Wunderground v.1.13,2013-05-26 09:00:00,
2013-05-26 05:30:00,45.7,41.4,29.93,NNE,32,8.0,17.0,85,0.00,,,0.04,Wunderground v.1.13,2013-05-26 09:30:00,
2013-05-26 06:00:00,45.8,41.2,29.94,NE,37,7.0,17.0,84,0.00,,,0.04,Wunderground v.1.13,2013-05-26 10:00:00,
2013-05-26 06:30:00,45.8,40.9,29.95,NNW,335,7.0,7.0,83,0.00,,,0.04,Wunderground v.1.13,2013-05-26 10:30:00,
2013-05-26 07:01:00,45.8,41.5,29.95,NW,321,6.0,17.0,85,0.00,,,0.05,Wunderground v.1.13,2013-05-26 11:01:00,
2013-05-26 07:30:00,46.0,42.0,29.96,NW,307,5.0,5.0,86,0.00,,,0.05,Wunderground v.1.13,2013-05-26 11:30:00,
2013-05-26 08:00:00,46.2,41.6,29.97,North,355,7.0,17.0,84,0.00,,,0.05,Wunderground v.1.13,2013-05-26 12:00:00,
2013-05-26 08:30:00,46.1,41.5,29.98,NNW,333,9.0,17.0,84,0.00,,,0.06,Wunderground v.1.13,2013-05-26 12:30:00,
2013-05-26 09:00:00,46.1,41.5,29.98,NNW,338,8.0,17.0,84,0.00,,,0.07,Wunderground v.1.13,2013-05-26 13:00:00,
2013-05-26 09:31:00,46.5,41.6,29.99,NW,311,6.0,6.0,83,0.00,,,0.07,Wunderground v.1.13,2013-05-26 13:31:00,
2013-05-26 10:00:00,47.7,41.2,29.98,NW,325,7.0,17.0,78,0.00,,,0.08,Wunderground v.1.13,2013-05-26 14:00:00,
2013-05-26 10:30:00,48.5,42.3,29.99,NNE,28,5.0,5.0,79,0.00,,,0.08,Wunderground v.1.13,2013-05-26 14:30:00,
2013-05-26 11:00:00,49.8,42.9,29.99,NNW,338,4.0,4.0,77,0.00,,,0.08,Wunderground v.1.13,2013-05-26 15:00:00,
2013-05-26 11:30:00,50.8,40.6,29.99,NNW,331,5.0,17.0,68,0.00,,,0.08,Wunderground v.1.13,2013-05-26 15:30:00,
2013-05-26 12:01:00,51.7,39.5,29.99,NNE,12,6.0,6.0,63,0.00,,,0.08,Wunderground v.1.13,2013-05-26 16:01:00,
2013-05-26 12:30:00,52.3,40.5,30.00,NNW,345,4.0,4.0,64,0.00,,,0.08,Wunderground v.1.13,2013-05-26 16:30:00,
2013-05-26 13:00:00,53.3,38.0,29.99,NNW,342,3.0,17.0,56,0.00,,,0.08,Wunderground v.1.13,2013-05-26 17:00:00,
2013-05-26 13:30:00,55.3,38.4,29.99,NNW,343,4.0,17.0,53,0.00,,,0.08,Wunderground v.1.13,2013-05-26 17:30:00,
2013-05-26 14:00:00,56.6,38.2,29.99,NNW,343,5.0,17.0,50,0.00,,,0.08,Wunderground v.1.13,2013-05-26 18:00:00,
2013-05-26 14:31:00,57.5,35.7,29.99,NNE,28,8.0,8.0,44,0.00,,,0.08,Wunderground v.1.13,2013-05-26 18:31:00,
2013-05-26 15:00:00,58.1,35.1,29.99,NW,313,7.0,7.0,42,0.00,,,0.08,Wunderground v.1.13,2013-05-26 19:00:00,
2013-05-26 15:30:00,59.6,35.9,29.99,NNE,16,3.0,17.0,41,0.00,,,0.08,Wunderground v.1.13,2013-05-26 19:30:00,
2013-05-26 16:00:00,60.7,32.1,29.99,North,355,6.0,17.0,34,0.00,,,0.08,Wunderground v.1.13,2013-05-26 20:00:00,
2013-05-26 16:30:00,61.5,32.1,29.99,North,360,6.0,6.0,33,0.00,,,0.08,Wunderground v.1.13,2013-05-26 20:30:00,
2013-05-26 17:01:00,63.4,30.6,29.98,NW,310,3.0,3.0,29,0.00,,,0.08,Wunderground v.1.13,2013-05-26 21:01:00,
2013-05-26 17:30:00,63.4,32.2,29.98,NW,320,4.0,17.0,31,0.00,,,0.08,Wunderground v.1.13,2013-05-26 21:30:00,
2013-05-26 18:00:00,63.5,29.8,29.98,NW,319,5.0,5.0,28,0.00,,,0.08,Wunderground v.1.13,2013-05-26 22:00:00,
2013-05-26 18:30:00,63.4,29.7,29.98,NNW,332,4.0,17.0,28,0.00,,,0.08,Wunderground v.1.13,2013-05-26 22:30:00,
2013-05-26 19:00:00,63.9,30.1,29.98,NNW,342,2.0,2.0,28,0.00,,,0.08,Wunderground v.1.13,2013-05-26 23:00:00,
2013-05-26 19:31:00,63.1,30.3,29.98,NW,325,2.0,17.0,29,0.00,,,0.08,Wunderground v.1.13,2013-05-26 23:31:00,
2013-05-26 20:00:00,61.6,31.4,29.98,NW,314,1.0,17.0,32,0.00,,,0.08,Wunderground v.1.13,2013-05-27 00:00:00,
2013-05-26 20:30:00,60.2,31.7,29.98,NW,313,0.0,17.0,34,0.00,,,0.08,Wunderground v.1.13,2013-05-27 00:30:00,
2013-05-26 21:00:00,57.0,36.4,29.98,NW,313,0.0,17.0,46,0.00,,,0.08,Wunderground v.1.13,2013-05-27 01:00:00,
2013-05-26 21:30:00,53.8,40.7,29.99,NW,313,0.0,17.0,61,0.00,,,0.08,Wunderground v.1.13,2013-05-27 01:30:00,
2013-05-26 22:01:00,52.3,40.1,29.99,NW,313,0.0,17.0,63,0.00,,,0.08,Wunderground v.1.13,2013-05-27 02:01:00,
2013-05-26 22:30:00,51.7,39.5,30.00,NW,313,0.0,17.0,63,0.00,,,0.08,Wunderground v.1.13,2013-05-27 02:30:00,
2013-05-26 23:00:00,52.0,37.7,30.00,NW,313,1.0,17.0,58,0.00,,,0.08,Wunderground v.1.13,2013-05-27 03:00:00,
2013-05-26 23:30:00,52.9,36.7,30.01,WNW,297,0.0,17.0,54,0.00,,,0.08,Wunderground v.1.13,2013-05-27 03:30:00,